Location: Kerb�bon
(47.7970°N, 3.3487°W)
Time: 12:42:52
(UTC+00:00)

Cosmos 2369 Rocket - Pass Details

Date: 12 May 2021
Orbit: 827 x 854 km, 71.0° (Epoch: 18 June)

Event Time Altitude Azimuth Distance (km) Brightness Sun altitude
Exits shadow 22:01:51 16° 98° (E) 2,048 3.8 -17.9°
Maximum altitude 22:01:53 16° 98° (E) 2,048 3.8 -17.9°
Drops below altitude 10° 22:05:11 10° 62° (ENE) 2,458 4.6 -18.2°
Sets 22:08:34 0° 42° (NE) 3,404 5.6 -18.5°
